Weather History for Wittering, United Kingdom

Change the Weather History Date:

Sunday, January 13, 2013

  Actual Average Record
Temperature  
Mean Temperature 33 °F -  
Max Temperature 36 °F 43 °F 55 °F (2011)
Min Temperature 30 °F 34 °F 28 °F (2012)
Degree Days  
Heating Degree Days 32    
Moisture  
Dew Point 29 °F    
Average Humidity 87    
Maximum Humidity 96    
Minimum Humidity 61    
Precipitation  
Precipitation 0.00 in - - ()
Sea Level Pressure  
Sea Level Pressure 30.11 in    
Wind  
Wind Speed 6 mph ()    
Max Wind Speed 8 mph    
Max Gust Speed -    
Visibility 6.0 miles    
Events Snow    
Averages and records for this station are not official NWS values.
T = Trace of Precipitation, MM = Missing Value Source: Averaged Metar Reports

Daily Weather History Graph

Daily Weather History Graph

Search for Another Location

Airport:

Trip Planner

Search our weather history database for the weather conditions in past years. The results will help you decide how hot, cold, wet, or windy it might be!

Date:

Astronomy

Jan. 13, 2013 Rise Set
Actual Time 8:07 AM GMT 4:14 PM GMT
Civil Twilight 7:27 AM GMT 4:54 PM GMT
Nautical Twilight 6:44 AM GMT 5:37 PM GMT
Astronomical Twilight 6:02 AM GMT 6:18 PM GMT
Moon 8:35 AM GMT (1/13) 7:00 PM GMT (1/13)
Length of Visible Light 9h 27m
Length of Day
8h 07m
Waxing Crescent, 4% of the Moon is Illuminated
Jan 13
Waxing Crescent
Jan 18
First Quarter
Jan 27
Full
Feb 3
Last Quarter
Feb 10
New

Hourly Weather History & Observations

Time (GMT) Temp. Windchill Dew Point Humidity Pressure Visibility Wind Dir Wind Speed Gust Speed Precip Events Conditions
12:50 AM 30.2 °F 22.6 °F 26.6 °F 86% 30.04 in 6.2 mi NNE 8.1 mph - N/A   Unknown
1:50 AM 30.2 °F 23.4 °F 26.6 °F 86% 30.04 in 6.2 mi NNE 6.9 mph - N/A   Unknown
2:50 AM 30 °F - 27 °F 85% 30.09 in 6 mi North 8.1 mph - -   Mostly Cloudy
2:50 AM 30.2 °F 22.6 °F 26.6 °F 86% 30.06 in 6.2 mi North 8.1 mph - N/A   Mostly Cloudy
3:50 AM 30.2 °F 22.6 °F 28.4 °F 93% 30.06 in 4.3 mi North 8.1 mph - N/A   Haze
4:50 AM 30.2 °F 22.6 °F 28.4 °F 93% 30.06 in 4.3 mi North 8.1 mph - N/A   Mostly Cloudy
5:50 AM 32 °F - 30 °F 91% 30.11 in 4 mi North 8.1 mph - - Snow Snow
5:50 AM 32.0 °F 24.8 °F 30.2 °F 93% 30.09 in 3.7 mi North 8.1 mph - N/A   Overcast
6:50 AM 32.0 °F 25.6 °F 30.2 °F 93% 30.09 in 4.3 mi North 6.9 mph - N/A   Mostly Cloudy
7:50 AM 32.0 °F 24.8 °F 30.2 °F 93% 30.12 in 4.3 mi NNW 8.1 mph - N/A   Scattered Clouds
8:50 AM 31 °F - 30 °F 96% 30.15 in 4 mi NNW 8.1 mph - -   Mist
8:50 AM 32.0 °F 24.8 °F 30.2 °F 93% 30.12 in 3.7 mi NNW 8.1 mph - N/A   Scattered Clouds
9:50 AM 32.0 °F 24.8 °F 30.2 °F 93% 30.12 in 6.2 mi North 8.1 mph - N/A   Scattered Clouds
10:50 AM 33.8 °F 28.6 °F 30.2 °F 87% 30.15 in 6.2 mi North 5.8 mph - N/A   Mostly Cloudy
11:50 AM 35 °F - 29 °F 71% 30.16 in 22 mi North 4.6 mph - -   Overcast
11:50 AM 35.6 °F 31.7 °F 28.4 °F 75% 30.12 in 6.2 mi North 4.6 mph - N/A   Overcast
12:50 PM 35.6 °F 30.7 °F 28.4 °F 75% 30.12 in 6.2 mi NNW 5.8 mph - N/A   Mostly Cloudy
1:50 PM 37.4 °F 32.1 °F 28.4 °F 70% 30.12 in 6.2 mi North 6.9 mph - N/A   Partly Cloudy
2:50 PM 36 °F - 28 °F 61% 30.16 in 19 mi North 4.6 mph - -   Partly Cloudy
2:50 PM 35.6 °F 31.7 °F 28.4 °F 75% 30.12 in 6.2 mi North 4.6 mph - N/A   Scattered Clouds
3:50 PM 33.8 °F 28.6 °F 30.2 °F 87% 30.12 in 6.2 mi North 5.8 mph - N/A   Mostly Cloudy
4:50 PM 32.0 °F 25.6 °F 30.2 °F 93% 30.15 in 5.0 mi NW 6.9 mph - N/A   Haze
5:50 PM 32 °F - 29 °F 82% 30.17 in 9 mi North 6.9 mph - -   Mostly Cloudy
5:50 PM 32.0 °F 25.6 °F 28.4 °F 87% 30.12 in 6.2 mi North 6.9 mph - N/A   Mostly Cloudy
6:50 PM 32.0 °F 28.7 °F 28.4 °F 87% 30.12 in 6.2 mi NW 3.5 mph - N/A   Overcast
7:50 PM 30.2 °F - 28.4 °F 93% 30.12 in 6.2 mi NW 2.3 mph - N/A   Overcast
8:50 PM 31 °F - 29 °F 88% 30.15 in 6 mi Calm Calm - -   Light Haze
8:50 PM 30.2 °F - 28.4 °F 93% 30.12 in 5.6 mi Calm Calm - N/A   Haze
9:50 PM 32.0 °F - 30.2 °F 93% 30.09 in 4.3 mi South 2.3 mph - N/A   Haze
10:50 PM 32.0 °F 28.7 °F 30.2 °F 93% 30.09 in 4.3 mi SW 3.5 mph - N/A Snow Light Snow Showers
11:50 PM 32 °F - 29 °F 86% 30.11 in 6 mi SW 5.8 mph - - Snow Light Snow
11:50 PM 32.0 °F 26.4 °F 30.2 °F 93% 30.09 in 6.2 mi SW 5.8 mph - N/A Snow Light Snow